#timestamp,LO_Frequency,Hit,StdDev 
1570680015.2,286047002.6,P
1570680035.9,286047002.7,P
1570680055.7,286047002.6,P
1570680075.6,286047002.7,Y
1570680095.4,286046999.4,P
1570680115.2,286047000.8,N
1570680135.1,286046999.4,N
1570680136.0,286046999.4,N
1570680155.8,286046999.5,N
1570680175.7,286046998.3,N
1570680195.5,286047000.5,N
1570680215.3,286046998.8,N
1570680235.2,286047000.6,N
1570680255.0,286046999.6,N
1570680255.9,286046999.6,N
1570680275.7,286046997.1,N
1570680295.6,286046997.7,N
1570680315.4,286046997.6,N
1570680335.3,286046996.9,N
1570680355.1,286046997.0,N
1570680356.0,286046997.0,N
1570680375.8,286046998.5,N
1570680395.7,286046998.2,N
1570680415.5,286046998.3,N
1570680435.3,286046998.1,N
1570680455.2,286046998.3,N
1570680475.0,286047001.1,N
1570680475.9,286047001.1,N
1570680495.8,286047001.2,N
1570680515.6,286046999.4,N
1570680535.4,286046997.1,N
1570680555.3,286046998.5,N
1570680575.1,286046998.8,N
1570680595.8,286046997.4,N
1570680615.7,286046996.6,N
1570680635.5,286046997.4,N
1570680655.4,286046997.9,N
1570680675.2,286046997.4,N
1570680695.0,286046997.4,N
1570680695.9,286046997.4,N
1570680715.8,286046997.9,N
1570680735.6,286046993.9,Y
1570680755.4,286046994.9,P
1570680775.3,286046997.6,N
1570680795.1,286046997.2,N
1570680815.9,286046997.6,N
1570680835.7,286046997.3,N
1570680855.5,286046997.1,N
1570680875.4,286046996.1,Y
1570680895.2,286046999.1,P
1570680915.0,286046996.6,P
1570680916.0,286046996.6,P
1570680935.8,286046999.2,N
1570680955.6,286046996.5,N
1570680975.5,286046996.6,N
1570680995.3,286046996.7,N
1570681015.1,286046997.6,N
1570681035.9,286046994.9,Y
1570681055.7,286046999.4,P
1570681075.6,286046999.4,N
1570681095.4,286046999.2,N
1570681115.2,286046997.2,Y
1570681135.1,286046999.2,P
1570681136.0,286046999.2,P
1570681155.8,286046999.2,P
1570681175.6,286046997.8,Y
1570681195.5,286046996.9,P
1570681215.3,286047000.8,N
1570681235.2,286046999.2,N
1570681255.9,286046995.9,N
1570681275.7,286046995.9,N
1570681295.6,286046993.3,Y
1570681315.4,286046996.4,P
1570681335.2,286046993.7,P
1570681355.1,286046996.2,N
1570681356.0,286046996.2,N
1570681375.8,286046994.7,Y
1570681395.7,286046999.0,P
1570681415.5,286046999.0,N
1570681435.3,286046999.2,N
1570681455.2,286046995.7,Y
1570681475.0,286046996.8,P
1570681475.9,286046996.8,P
1570681495.8,286046997.6,P
1570681515.6,286046997.2,Y
1570681535.4,286047002.5,P
1570681555.3,286047002.4,N
1570681575.1,286047000.5,N
1570681595.8,286046998.3,N
1570681615.7,286047001.1,N
1570681635.5,286047000.7,N
1570681655.4,286047000.9,N
1570681675.2,286046998.3,N
1570681695.0,286046996.8,N
1570681695.9,286046996.8,N
1570681715.8,286046995.4,N
1570681735.6,286046993.3,N
1570681755.4,286046996.0,N
1570681775.3,286046996.0,N
1570681795.1,286046993.7,N
1570681815.9,286046995.6,N
1570681835.7,286046993.4,N
1570681855.5,286046994.7,N
1570681875.4,286046993.6,N
1570681895.2,286046993.7,N
1570681915.0,286046996.4,N
1570681915.9,286046996.4,N
1570681935.8,286046996.3,N
1570681955.6,286046993.6,N
1570681975.5,286046992.2,N
1570681995.3,286046992.6,N
1570682015.1,286046990.2,Y
1570682035.9,286046995.3,P
1570682055.7,286046996.4,P
1570682075.6,286046995.5,P
1570682095.4,286046996.0,Y
1570682115.2,286046996.5,P
1570682135.1,286046997.0,P
1570682136.0,286046997.0,P
1570682155.8,286046997.6,Y
1570682175.6,286047000.5,P
1570682195.5,286046998.6,N
1570682215.3,286047000.0,N
1570682235.2,286047000.1,N
1570682255.9,286047000.8,N
1570682275.7,286047011.9,Y
1570682295.6,286047000.7,P
1570682315.4,286047001.2,N
1570682335.2,286047000.8,N
1570682355.1,286046998.9,N
1570682356.0,286046998.9,N
1570682375.8,286046998.3,N
1570682395.7,286046999.1,N
1570682415.5,286046999.5,N
1570682435.3,286046997.4,N
1570682455.2,286046998.6,N
1570682475.0,286046999.2,N
1570682475.9,286046999.2,N
1570682495.7,286046997.8,N
1570682515.6,286046999.0,N
1570682535.4,286046998.4,N
1570682555.3,286046997.4,N
1570682575.1,286046997.7,N
1570682576.0,286046997.7,N
1570682595.8,286046997.9,N
1570682615.7,286046996.7,Y
1570682635.5,286047001.2,P
1570682655.3,286046998.7,N
1570682675.2,286046999.3,N
1570682695.0,286046998.9,N
1570682695.9,286046998.9,N
1570682715.8,286046994.9,Y
1570682735.6,286046998.0,P
1570682755.4,286046996.7,P
1570682775.3,286046999.2,N
1570682795.1,286046998.5,N
1570682815.8,286046998.3,N
1570682835.7,286046998.3,N
1570682855.5,286046998.5,N
1570682875.4,286047001.2,N
1570682895.2,286046998.2,N
1570682915.0,286046999.0,N
1570682915.9,286046999.0,N
1570682935.8,286046998.6,N
1570682955.6,286047002.2,N
1570682975.4,286046999.8,N
1570682995.3,286047000.2,N
1570683015.1,286046999.8,N
1570683035.9,286047000.6,N
1570683055.7,286046999.1,N
1570683075.5,286046996.7,N
1570683095.4,286046997.7,N
1570683115.2,286046998.8,N
1570683135.1,286046996.7,N
1570683136.0,286046996.7,N
1570683155.8,286046997.2,N
1570683175.6,286046999.3,N
1570683195.5,286046998.7,N
1570683215.3,286046998.6,N
1570683235.1,286046999.0,N
1570683255.9,286046998.1,N
1570683275.7,286047000.5,N
1570683295.5,286047000.3,N
1570683315.4,286047000.1,N
1570683335.2,286047000.3,N
1570683355.1,286047001.2,N
1570683356.0,286047001.2,N
1570683375.8,286047000.7,N
1570683395.6,286046999.9,N
1570683415.5,286047002.8,N
1570683435.3,286046999.9,N
1570683455.1,286047000.8,N
1570683475.9,286047000.1,N
1570683495.7,286047000.1,N
1570683515.6,286047001.0,N
1570683535.4,286047002.4,N
1570683555.2,286047002.4,N
1570683575.1,286046999.8,N
1570683576.0,286046999.8,N
1570683595.8,286047004.3,N
